DW3798 Weather Reports


Display with metric or nautical units.
time (UTC)temp
F
wind
direction
speed
MPH
gust
MPH
rain 1hr
in
rain 24hr
in
rain mn
in
humidity
%
barometer
mb
20260504202004 70 331 3.0 8.0 0.00 0.00 0.00 58 1007.4
20260504201512 69 157 3.0 10.0 0.00 0.00 0.00 59 1007.5
20260504201003 68 290 4.0 10.0 0.00 0.00 0.00 60 1007.5
20260504200503 68 294 3.0 9.0 0.00 0.00 0.00 1007.5
20260504200020 67 144 4.0 13.0 0.00 0.00 0.00 1007.5
20260504195503 67 49 2.0 13.0 0.00 0.00 0.00 1007.5
20260504195007 68 216 3.0 11.0 0.00 0.00 0.00 60 1007.6
20260504194522 68 165 4.0 11.0 0.00 0.00 0.00 60 1007.9
20260504194009 68 137 4.0 11.0 0.00 0.00 0.00 60 1007.9
20260504193511 68 252 3.0 13.0 0.00 0.00 0.00 59 1007.8
20260504193026 68 265 6.0 13.0 0.00 0.00 0.00 58 1008.0
20260504192512 69 200 4.0 13.0 0.00 0.00 0.00 59 1008.4
20260504192005 69 245 3.0 13.0 0.00 0.00 0.00 58 1008.4
20260504191513 70 268 4.0 13.0 0.00 0.00 0.00 56 1008.5
20260504191004 70 263 4.0 15.0 0.00 0.00 0.00 55 1008.6
20260504190506 70 265 6.0 15.0 0.00 0.00 0.00 55 1008.4
20260504190018 70 269 4.0 13.0 0.00 0.00 0.00 55 1008.4
20260504185504 70 273 6.0 13.0 0.00 0.00 0.00 54 1008.5
20260504185004 71 276 3.0 12.0 0.00 0.00 0.00 53 1008.3
20260504184528 71 264 2.0 13.0 0.00 0.00 0.00 54 1008.1
20260504184009 71 250 3.0 14.0 0.00 0.00 0.00 54 1008.2
20260504183512 71 247 6.0 16.0 0.00 0.00 0.00 54 1008.1
20260504183033 71 169 6.0 17.0 0.00 0.00 0.00 52 1008.1
20260504182507 71 258 7.0 17.0 0.00 0.00 0.00 52 1008.2
20260504182016 72 156 5.0 14.0 0.00 0.00 0.00 52 1007.9
20260504181531 72 209 5.0 14.0 0.00 0.00 0.00 52 1007.8
20260504181004 72 273 5.0 17.0 0.00 0.00 0.00 52 1007.9
20260504180504 72 281 8.0 16.0 0.00 0.00 0.00 50 1007.9
20260504180014 73 254 7.0 19.0 0.00 0.00 0.00 50 1007.8
20260504175504 73 139 7.0 19.0 0.00 0.00 0.00 50 1007.8
20260504175003 73 221 3.0 13.0 0.00 0.00 0.00 53 1007.7
20260504174516 72 132 3.0 16.0 0.00 0.00 0.00 53 1007.7
20260504174005 72 215 4.0 16.0 0.00 0.00 0.00 52 1007.9
20260504173506 72 279 5.0 15.0 0.00 0.00 0.00 50 1007.8
20260504173024 72 215 6.0 12.0 0.00 0.00 0.00 51 1007.8
20260504172512 72 247 5.0 17.0 0.00 0.00 0.00 53 1007.7
20260504172011 72 236 5.0 17.0 0.00 0.00 0.00 50 1007.8
20260504171526 72 210 4.0 14.0 0.00 0.00 0.00 52 1007.9
20260504171011 72 257 5.0 14.0 0.00 0.00 0.00 52 1007.9
20260504170513 71 219 4.0 14.0 0.00 0.00 0.00 53 1007.9
20260504151008 65 254 5.0 11.0 0.00 0.00 0.00 59 1009.0
20260504150504 65 171 3.0 8.0 0.00 0.00 0.00 61 1009.0
20260504141013 61 151 4.0 11.0 0.00 0.00 0.00 63 1009.3
20260504140508 60 205 3.0 11.0 0.00 0.00 0.00 63 1009.3
20260504130507 55 205 2.0 11.0 0.00 0.00 0.00 65 1009.7
20260504110504 49 164 3.0 9.0 0.00 0.00 0.00 69 1009.5
20260504100504 49 208 4.0 8.0 0.00 0.00 0.00 67 1009.9
20260504081528 50 157 2.0 8.0 0.00 0.00 0.00 64 1010.6
20260504081007 50 169 4.0 8.0 0.00 0.00 0.00 64 1010.6
20260504080519 50 138 3.0 10.0 0.00 0.00 0.00 64 1010.6
20260504050503 52 167 3.0 9.0 0.00 0.00 0.00 58 1012.1
20260504050006 52 188 3.0 9.0 0.00 0.00 0.00 58 1012.2
20260504045503 52 175 3.0 10.0 0.00 0.00 0.00 58 1012.2
20260504045005 52 150 4.0 10.0 0.00 0.00 0.00 58 1012.2
20260504044512 52 174 2.0 9.0 0.00 0.00 0.00 58 1012.3
20260504044006 52 223 3.0 9.0 0.00 0.00 0.00 58 1012.3
20260504043504 52 173 3.0 10.0 0.00 0.00 0.00 58 1012.3
20260504043016 52 158 3.0 10.0 0.00 0.00 0.00 58 1012.4
20260504042505 52 232 1.0 8.0 0.00 0.00 0.00 59 1012.5
20260504042005 52 185 3.0 8.0 0.00 0.00 0.00 59 1012.5
20260504041513 52 177 2.0 7.0 0.00 0.00 0.00 59 1012.5
20260504041005 52 250 3.0 7.0 0.00 0.00 0.00 59 1012.6
20260504040503 52 178 2.0 6.0 0.00 0.00 0.00 60 1012.7
20260504040004 52 213 2.0 6.0 0.00 0.00 0.00 60 1012.8
20260504035503 52 166 3.0 7.0 0.00 0.00 0.00 60 1012.8
20260504035004 52 171 4.0 7.0 0.00 0.00 0.00 60 1012.8
20260504034509 52 168 3.0 5.0 0.00 0.00 0.00 61 1012.8
20260504034003 51 205 2.0 7.0 0.00 0.00 0.00 61 1012.8
20260504033504 51 155 4.0 7.0 0.00 0.00 0.00 62 1012.9
20260504033013 51 165 3.0 7.0 0.00 0.00 0.00 63 1012.9
20260504032504 51 157 2.0 6.0 0.00 0.00 0.00 64 1012.9
20260504032006 51 169 2.0 6.0 0.00 0.00 0.00 65 1013.0
20260504031516 51 153 2.0 5.0 0.00 0.00 0.00 66 1013.0
20260504031007 50 190 3.0 5.0 0.00 0.00 0.00 66 1013.0
20260504030505 50 168 2.0 6.0 0.00 0.00 0.00 67 1013.1
20260504030018 50 153 2.0 6.0 0.00 0.00 0.00 67 1013.1
20260504025503 50 116 3.0 6.0 0.00 0.00 0.00 68 1013.2
20260504025006 50 134 2.0 4.0 0.00 0.00 0.00 69 1013.3
20260504024506 50 141 2.0 4.0 0.00 0.00 0.00 69 1013.3
20260504024004 50 159 2.0 5.0 0.00 0.00 0.00 69 1013.4
20260504023504 50 127 2.0 5.0 0.00 0.00 0.00 69 1013.4
20260504023011 50 131 2.0 4.0 0.00 0.00 0.00 69 1013.4
20260504022508 50 115 2.0 5.0 0.00 0.00 0.00 69 1013.4
20260504022004 50 137 3.0 5.0 0.00 0.00 0.00 69 1013.4
20260504021523 50 136 2.0 4.0 0.00 0.00 0.00 69 1013.4
20260504021005 50 140 2.0 4.0 0.00 0.00 0.00 69 1013.5
20260504020507 50 144 2.0 6.0 0.00 0.00 0.00 69 1013.5
20260504020025 50 117 2.0 6.0 0.00 0.00 0.00 69 1013.5
20260504015503 49 126 3.0 6.0 0.00 0.00 0.00 69 1013.4
20260504015006 49 117 3.0 7.0 0.00 0.00 0.00 69 1013.4
20260504014517 49 121 3.0 7.0 0.00 0.00 0.00 69 1013.4
20260504014002 49 117 3.0 7.0 0.00 0.00 0.00 70 1013.5
20260504013503 49 118 2.0 4.0 0.00 0.00 0.00 70 1013.5
20260504013006 49 137 2.0 6.0 0.00 0.00 0.00 70 1013.5
20260504012503 49 116 2.0 7.0 0.00 0.00 0.00 70 1013.5
20260504012003 49 124 4.0 7.0 0.00 0.00 0.00 70 1013.4
20260504011515 49 117 3.0 7.0 0.00 0.00 0.00 70 1013.5
20260504011007 49 134 2.0 4.0 0.00 0.00 0.00 70 1013.5
20260504010505 49 92 3.0 4.0 0.00 0.00 0.00 69 1013.6
20260504010016 49 110 2.0 6.0 0.00 0.00 0.00 69 1013.6
20260504005504 49 114 3.0 6.0 0.00 0.00 0.00 68 1013.5
20260504005008 49 103 3.0 6.0 0.00 0.00 0.00 68 1013.5
20260504004534 49 103 2.0 4.0 0.00 0.00 0.00 68 1013.5
20260504004004 50 121 2.0 6.0 0.00 0.00 0.00 67 1013.4
20260504003510 50 117 3.0 6.0 0.00 0.00 0.00 67 1013.4
20260504003005 50 113 2.0 6.0 0.00 0.00 0.00 67 1013.5
20260504002503 50 121 3.0 6.0 0.00 0.00 0.00 67 1013.6
20260504002003 49 117 2.0 6.0 0.00 0.00 0.00 67 1013.6
20260504001526 49 111 2.0 6.0 0.00 0.00 0.00 68 1013.5
20260504001004 49 102 3.0 6.0 0.00 0.00 0.00 68 1013.4
20260504000504 49 119 3.0 6.0 0.00 0.00 0.00 68 1013.4
20260504000016 49 119 3.0 6.0 0.00 0.00 0.00 70 1013.3
20260503235504 49 121 3.0 9.0 0.00 0.00 0.00 69 1013.4
20260503235005 49 121 4.0 9.0 0.00 0.00 0.00 70 1013.4
20260503234524 49 105 4.0 8.0 0.00 0.00 0.00 71 1013.4
20260503234005 49 109 3.0 8.0 0.00 0.00 0.00 71 1013.3
20260503233509 49 84 3.0 7.0 0.00 0.00 0.00 71 1013.3
20260503233022 49 82 4.0 7.0 0.00 0.00 0.00 72 1013.4
20260503232507 49 99 3.0 7.0 0.00 0.00 0.00 72 1013.5
20260503232007 49 102 3.0 7.0 0.00 0.00 0.00 72 1013.6
20260503231508 49 101 2.0 7.0 0.00 0.00 0.00 72 1013.7
20260503231004 49 124 4.0 7.0 0.00 0.00 0.00 73 1013.7
20260503230503 49 114 3.0 7.0 0.00 0.00 0.00 73 1013.8
20260503230012 49 124 3.0 7.0 0.00 0.00 0.00 73 1013.9
20260503225503 49 105 2.0 6.0 0.00 0.00 0.00 74 1014.0
20260503225005 49 134 2.0 6.0 0.00 0.00 0.00 74 1014.4
20260503224517 49 78 3.0 7.0 0.00 0.00 0.00 74 1014.5
20260503224008 49 90 4.0 7.0 0.00 0.00 0.00 74 1014.5
20260503223508 49 88 4.0 5.0 0.00 0.00 0.00 75 1014.7
20260503223023 49 91 3.0 4.0 0.00 0.00 0.00 74 1014.9
20260503222507 49 96 1.0 4.0 0.00 0.00 0.00 73 1015.2
20260503222007 49 90 2.0 4.0 0.00 0.00 0.00 72 1015.2
20260503221523 49 44 2.0 4.0 0.00 0.00 0.00 71 1015.0
20260503221007 50 75 2.0 3.0 0.00 0.00 0.00 71 1015.1
20260503220505 50 51 1.0 4.0 0.00 0.00 0.00 69 1015.3
20260503220020 51 27 2.0 4.0 0.00 0.00 0.00 68 1015.4
20260503215504 51 287 0.0 8.0 0.00 0.00 0.00 66 1015.7
20260503215002 51 284 0.0 11.0 0.00 0.00 0.00 65 1015.6
20260503214528 52 292 4.0 11.0 0.00 0.00 0.00 64 1015.8
20260503214004 52 201 4.0 10.0 0.00 0.00 0.00 60 1016.0
20260503213507 52 267 4.0 9.0 0.00 0.00 0.00 59 1015.9
20260503213030 53 288 3.0 18.0 0.00 0.00 0.00 58 1015.9
20260503212506 54 188 8.0 18.0 0.00 0.00 0.00 55 1015.9
20260503212013 55 243 6.0 15.0 0.00 0.00 0.00 53 1015.8
20260503211526 55 268 4.0 15.0 0.00 0.00 0.00 49 1015.8
20260503211008 56 205 7.0 15.0 0.00 0.00 0.00 47 1015.6
20260503210509 57 281 7.0 15.0 0.00 0.00 0.00 44 1015.6
20260503210023 57 255 6.0 15.0 0.00 0.00 0.00 41 1015.4
20260503205503 58 209 4.0 11.0 0.00 0.00 0.00 39 1015.3
20260503205005 58 277 4.0 10.0 0.00 0.00 0.00 39 1015.2
20260503204522 59 178 3.0 10.0 0.00 0.00 0.00 39 1015.2
20260503204003 59 273 3.0 10.0 0.00 0.00 0.00 39 1015.2
20260503203510 59 285 3.0 15.0 0.00 0.00 0.00 38 1015.2
20260503203017 59 284 5.0 15.0 0.00 0.00 0.00 37 1015.4
20260503202506 60 236 5.0 15.0 0.00 0.00 0.00 37 1015.4